Weather in Karalat

Russia / Astrakhan Oblast     45°54′42″N   48°18′14″E
temp.,
°C
wind,
m/s
gust,
m/s
humid.,
%
clouds,
%
prec.,
mm/h
press.,
hPa
HPBL,
m
11 may, tue
tue1101:00+9sw36630 0.0 1019107
04:00+8wsw35660 0.0 102093
07:00+10wnw24637 0.0 1020201
10:00+15ese44484 0.0 10211151
13:00+18se67375 0.0 10201648
16:00+18ese783967 0.0 10201746
19:00+16e58495 0.0 1020967
22:00+13ene38583 0.0 1019162
12 may, wed
wed1201:00+13ene3961100 0.0 1017219
04:00+14ne3669100 0.0 1016173
07:00+15ne3671100 0.0 1017204
10:00+21ene355731 0.0 10161204
13:00+22ese345510 0.1 10161101
16:00+22se65581 0.1 1016941
19:00+19sse45580 0.0 1016525
22:00+16se22660 0.0 101633
13 may, thu
thu1301:00+15ese22710 0.0 101628
04:00+15nne11802 0.2 101411
07:00+17ne117119 0.0 1015102
10:00+24se475384 0.0 1016778
13:00+25sse7104519 0.0 1016809
16:00+24se68510 0.1 1016530
19:00+22se46530 0.0 1016304
22:00+20ese37560 0.0 1017115
14 may, fri
fri1401:00+20ese45560 0.0 101666
04:00+19ese412614 0.0 1016202
07:00+22ese615445 0.0 1017409
10:00+26se813329 0.0 1018606
13:00+27se9132676 0.0 1018835
16:00+28se9132132 0.0 1018982
19:00+25ese510345 0.0 1018355
22:00+21ese5144613 0.0 1018291
15 may, sat
sat1501:00+19ese4106048 0.0 1016153
04:00+19e512575 0.0 1016190
07:00+23se715480 0.0 1017458
10:00+27se812330 0.0 1017809
13:00+29se810290 0.0 1017908
16:00+29se68260 0.0 1016886
19:00+26ese47350 0.0 1016339
22:00+21e34490 0.0 101657